FW1764 Weather Reports


Display with metric or nautical units.
time (UTC)temp
F
wind
direction
speed
MPH
gust
MPH
rain 1hr
in
rain 24hr
in
rain mn
in
humidity
%
barometer
mb
20260504204519 79 203 1.0 7.0 0.00 0.00 0.00 48 1004.4
20260504203016 78 217 1.0 5.0 0.00 0.00 0.00 50 1004.6
20260504201517 77 196 1.0 9.0 0.00 0.00 0.00 50 1004.4
20260504200042 78 198 1.0 4.0 0.00 0.00 0.00 47 1005.7
20260504194548 79 179 1.0 9.0 0.00 0.00 0.00 45 1005.8
20260504193039 80 96 4.0 10.0 0.00 0.00 0.00 43 1005.5
20260504191539 81 191 3.0 13.0 0.00 0.00 0.00 45 1005.5
20260504190038 80 164 3.0 12.0 0.00 0.00 0.00 46 1005.5
20260504184545 80 194 4.0 14.0 0.00 0.00 0.00 46 1005.9
20260504183029 80 214 3.0 12.0 0.00 0.00 0.00 45 1005.8
20260504181531 80 184 3.0 8.0 0.00 0.00 0.00 48 1006.0
20260504180026 80 178 2.0 7.0 0.00 0.00 0.00 49 1005.9
20260504174522 79 219 3.0 8.0 0.00 0.00 0.00 49 1006.4
20260504173054 78 146 2.0 10.0 0.00 0.00 0.00 52 1006.5
20260504171548 78 220 2.0 9.0 0.00 0.00 0.00 50 1007.0
20260504081536 63 201 0.0 5.0 0.00 0.00 0.00 68 1009.2
20260504044522 64 196 0.0 5.0 0.00 0.00 0.00 63 1010.6
20260504043027 65 191 1.0 4.0 0.00 0.00 0.00 62 1010.8
20260504041530 65 191 1.0 6.0 0.00 0.00 0.00 62 1010.9
20260504040017 65 191 1.0 4.0 0.00 0.00 0.00 61 1011.2
20260504034519 66 143 0.0 5.0 0.00 0.00 0.00 60 1011.6
20260504033016 66 181 1.0 8.0 0.00 0.00 0.00 59 1011.6
20260504031513 66 193 1.0 5.0 0.00 0.00 0.00 58 1011.4
20260504030012 66 204 0.0 5.0 0.00 0.00 0.00 58 1011.4
20260504024512 66 201 0.0 5.0 0.00 0.00 0.00 57 1011.4
20260504023011 66 204 0.0 4.0 0.00 0.00 0.00 56 1011.2
20260504021508 66 187 0.0 4.0 0.00 0.00 0.00 55 1011.2
20260504020012 67 203 0.0 2.0 0.00 0.00 0.00 55 1011.1
20260504014515 67 204 0.0 2.0 0.00 0.00 0.00 53 1011.1
20260504013008 68 198 0.0 4.0 0.00 0.00 0.00 52 1011.0
20260504011504 69 200 1.0 3.0 0.00 0.00 0.00 51 1010.9
20260504010006 70 207 0.0 4.0 0.00 0.00 0.00 50 1010.8
20260504004511 71 207 0.0 1.0 0.00 0.00 0.00 48 1010.9
20260504003002 72 216 0.0 4.0 0.00 0.00 0.00 46 1010.8
20260504001602 73 197 1.0 6.0 0.00 0.00 0.00 45 1010.9
20260503234627 74 204 1.0 7.0 0.00 0.00 0.00 41 1010.9
20260503233057 75 172 2.0 10.0 0.00 0.00 0.00 40 1011.0
20260503231527 75 214 2.0 10.0 0.00 0.00 0.00 40 1011.1
20260503230023 76 219 2.0 8.0 0.00 0.00 0.00 39 1011.1
20260503224553 77 175 2.0 5.0 0.00 0.00 0.00 39 1011.3
20260503223051 77 183 3.0 7.0 0.00 0.00 0.00 39 1011.2
20260503221557 76 167 4.0 16.0 0.00 0.00 0.00 38 1011.2
20260503220048 76 226 1.0 12.0 0.00 0.00 0.00 39 1011.2
20260503214546 76 155 3.0 11.0 0.00 0.00 0.00 39 1011.5
20260503213044 76 179 4.0 10.0 0.00 0.00 0.00 40 1011.6
20260503211512 75 193 3.0 8.0 0.00 0.00 0.00 41 1011.8
20260503210009 75 163 3.0 15.0 0.00 0.00 0.00 40 1012.1